Hill City, KS

1:49 AM CDT on May 29, 2017 (GMT -0500)
Hill City Municipal

Weather History for KHLC - November, 2011

Change the Weather History Date:

Thursday, November 24, 2011

  Actual Average Record
Temperature  
Mean Temperature 56 °F 37 °F  
Max Temperature 72 °F 49 °F 73 °F (1923)
Min Temperature 39 °F 24 °F -1 °F (1950)
Degree Days  
Heating Degree Days 10    
Growing Degree Days 6 (Base 50)    
Moisture  
Dew Point 30 °F    
Average Humidity 37    
Maximum Humidity 73    
Minimum Humidity 17    
Precipitation  
Precipitation 0.00 in 0.02 in 0.28 in (2001)
Month to date precipitation 0.55 0.82  
Year to date precipitation 19.62 22.10  
Sea Level Pressure  
Sea Level Pressure 29.90 in    
Wind  
Wind Speed 9 mph (SW)    
Max Wind Speed 17 mph    
Max Gust Speed 30 mph    
Visibility 10 miles    
Events      
T = Trace of Precipitation, MM = Missing Value Source: NWS Daily Summary

Daily Weather History Graph

Daily Weather History Graph

Search for Another Location

Airport or City:

Trip Planner

Search our weather history database for the weather conditions in past years. The results will help you decide how hot, cold, wet, or windy it might be!

Date:

Astronomy

Nov. 24, 2011 Rise Set
Actual Time 7:32 AM CST 5:18 PM CST
Civil Twilight 7:03 AM CST 5:48 PM CST
Nautical Twilight 6:30 AM CST 6:21 PM CST
Astronomical Twilight 5:58 AM CST 6:53 PM CST
Moon 6:52 AM CST (11/24) 4:51 PM CST (11/24)
Length of Visible Light 10h 44m
Length of Day
9h 46m
Waning Crescent, 0% of the Moon is Illuminated
Nov 24
Waning Crescent
Nov 25
New
Dec 2
First Quarter
Dec 10
Full
Dec 17
Last Quarter

Hourly Weather History & Observations

Time (CST) Temp. Windchill Dew Point Humidity Pressure Visibility Wind Dir Wind Speed Gust Speed Precip Events Conditions
12:53 AM 46.0 °F 41.9 °F - N/A% 30.01 in 10.0 mi SW 8.1 mph - N/A   Clear
1:53 AM 44.1 °F 39.5 °F - N/A% 29.99 in 10.0 mi SSW 8.1 mph - N/A   Clear
2:53 AM 45.0 °F 41.8 °F - N/A% 29.97 in 10.0 mi SSW 5.8 mph - N/A   Clear
3:53 AM 45.0 °F 40.6 °F - N/A% 29.96 in 10.0 mi SSW 8.1 mph - N/A   Clear
4:53 AM 44.1 °F 37.7 °F - N/A% 29.95 in 10.0 mi SW 12.7 mph - N/A   Clear
5:53 AM 42.1 °F 37.1 °F - N/A% 29.96 in 10.0 mi WSW 8.1 mph - N/A   Clear
6:53 AM 41.0 °F 35.8 °F - N/A% 29.97 in 10.0 mi SSW 8.1 mph - N/A   Clear
7:53 AM 39.0 °F 35.7 °F - N/A% 29.98 in 10.0 mi SSW 4.6 mph - N/A   Clear
8:53 AM 42.1 °F 37.1 °F - N/A% 29.96 in 10.0 mi SW 8.1 mph - N/A   Clear
9:53 AM 48.9 °F - - N/A% 29.94 in 10.0 mi SW 12.7 mph - N/A   Clear
10:53 AM 53.1 °F - 30.9 °F 43% 29.94 in 10.0 mi SSW 12.7 mph - N/A   Clear
11:53 AM 57.9 °F - 30.0 °F 35% 29.90 in 10.0 mi South 13.8 mph 23.0 mph N/A   Clear
12:53 PM 64.0 °F - 30.0 °F 28% 29.86 in 10.0 mi SSW 17.3 mph 24.2 mph N/A   Clear
2:53 PM 72.0 °F - 26.1 °F 18% 29.80 in 10.0 mi SSW 16.1 mph 29.9 mph N/A   Clear
3:53 PM 72.0 °F - 25.0 °F 17% 29.79 in 10.0 mi SW 17.3 mph 23.0 mph N/A   Clear
4:53 PM 66.9 °F - 27.0 °F 22% 29.81 in 10.0 mi WSW 6.9 mph - N/A   Clear
5:53 PM 62.1 °F - 27.0 °F 26% 29.82 in 10.0 mi SW 4.6 mph - N/A   Clear
6:53 PM 55.0 °F - 28.0 °F 35% 29.84 in 10.0 mi WSW 4.6 mph - N/A   Clear
7:53 PM 54.0 °F - 32.0 °F 43% 29.84 in 10.0 mi SSW 5.8 mph - N/A   Clear
8:53 PM 52.0 °F - 34.0 °F 50% 29.83 in 10.0 mi South 6.9 mph - N/A   Clear
9:53 PM 48.9 °F - 35.1 °F 59% 29.82 in 10.0 mi SSW 5.8 mph - N/A   Clear
11:53 PM 46.0 °F 44.8 °F 37.9 °F 73% 29.80 in 10.0 mi Variable 3.5 mph - N/A   Clear